Regional Weather Roundup
Issued by NWS

Home | Current Version | Previous Version | Graphics & Text | Print | Product List | Glossary On
Versions: 1 2 3 4 5 6 7 8 9 10 11 12 13 14 15 16 17 18 19 20 21 22 23 24 25 26 27 28 29 30 31 32 33 34 35 36 37 38 39 40 41 42 43 44 45 46 47 48 49 50
000
ASUS43 KDMX 270107
RWRIA

WEATHER ROUNDUP FOR IOWA
NATIONAL WEATHER SERVICE DES MOINES IA
700 PM CST FRI DEC 26 2014

NOTE: "FAIR" INDICATES FEW OR NO CLOUDS BELOW 12,000 FEET WITH NO
SIGNIFICANT WEATHER AND/OR OBSTRUCTIONS TO VISIBILITY.

* - THESE STATIONS ARE NOT NWS STATIONS...THUS NOT UNDER NWS
QUALITY CONTROL.  THEY ALSO DO NOT REPORT WEATHER SUCH
AS PRECIPITATION OR FOG.

IAZ001>003-012>014-020>022-031>034-043>046-270200-
   NORTHWEST IOWA

CITY           SKY/WX    TMP DP  RH WIND       PRES   REMARKS
CARROLL *      CLOUDY    32  32 100 NE13      30.00S FOG     WCI  22
CHEROKEE *     CLOUDY    30  28  93 N12       30.03S WCI  21
DENISON *      CLOUDY    32  32 100 NE12      29.99S WCI  23
LE MARS *      CLOUDY    28  27  93 N16       30.07R WCI  17
ORANGE CITY *  CLOUDY    28  25  86 N13       30.04S WCI  18
SHELDON *      CLOUDY    27  27 100 N16       30.03S WCI  14
SIOUX CITY     CLOUDY    31  26  82 N12       30.06R WCI  22
SPENCER        CLOUDY    30  25  81 N17       30.03S WCI  18
STORM LAKE *   CLOUDY    30  28  93 NE14      30.01S WCI  20
$$

IAZ055>058-069>071-079>083-090>094-270200-
   SOUTHWEST IOWA

CITY           SKY/WX    TMP DP  RH WIND       PRES   REMARKS
ATLANTIC *     CLOUDY    32  32 100 NE9G17    29.98S FOG     WCI  24
AUDUBON *      CLOUDY    32  27  80 N12       29.98F HAZE    WCI  23
CLARINDA *     CLOUDY    34  34 100 N9        29.99S FOG     WCI  26
COUNCIL BLFS * MIX PCPN  32  32 100 N8        30.00R WCI  25
CRESTON *      FOG       32  32 100 NE9       29.96S VSB 3/4 WCI  24
HARLAN  *      CLOUDY    32  32 100 N12       30.02F FOG     WCI  23
LAMONI         CLOUDY    35  32  88 NE8       29.95S WCI  29
RED OAK *      CLOUDY    34  34 100 NE9       29.99R FOG     WCI  26
SHENANDOAH *   CLOUDY    34  34 100 N9        30.00R FOG     WCI  26
$$

IAZ047>049-059>061-072>074-084-270200-
   CENTRAL IOWA

CITY           SKY/WX    TMP DP  RH WIND       PRES   REMARKS
AMES           CLOUDY    34  31  88 N10       29.99S FOG     WCI  26
ANKENY *       CLOUDY    34  32  93 N7        29.98S WCI  28
CHARITON *     CLOUDY    34  34 100 NE6       29.96S FOG     WCI  29
DES MOINES     CLOUDY    35  31  85 N6        29.98S WCI  30
GRINNELL*      CLOUDY    34  32  93 N7        29.97F FOG     WCI  28
KNOXVILLE *    CLOUDY    36  32  87 VRB5      29.95R WCI  32
MARSHALLTOWN   CLOUDY    34  32  92 NE7       29.98S FOG     WCI  28
PELLA *        CLOUDY    36  34  93 N3        29.98R
PERRY *        CLOUDY    34  34 100 N9        29.98F FOG     WCI  26
$$

IAZ004>006-015-016-023>025-035-036-270200-
   NORTH CENTRAL IOWA

CITY           SKY/WX    TMP DP  RH WIND       PRES   REMARKS
ALGONA *       CLOUDY    32  30  93 NE16      30.02S WCI  21
CLARION *      CLOUDY    32  32 100 NE15      29.99F WCI  22
ESTHERVILLE    CLOUDY    28  26  92 N17       30.02S WCI  16
FORT DODGE *   CLOUDY    30  28  93 N9        30.02R WCI  22
MASON CITY     LGT SNOW  32  30  92 N12       30.02R FOG     WCI  23
FOREST CITY *  CLOUDY    32  30  93 N9        30.01S WCI  24
IOWA FALLS *   CLOUDY    32  32 100 N7        30.00S FOG     WCI  26
$$

IAZ007>011-017>019-026>030-037>042-050>054-066-270200-
   NORTHEAST IOWA

CITY           SKY/WX    TMP DP  RH WIND       PRES   REMARKS
CEDAR RAPIDS   CLOUDY    37  33  85 N3        29.97S
CHARLES CITY * LGT SNOW  32  32 100 N9        29.99F WCI  24
CLINTON *      MOCLDY    39  34  81 N5        30.01S
DECORAH *      MIX PCPN  34  32  93 N7        29.99R WCI  28
DUBUQUE        PTCLDY    35  33  92 CALM      29.98R
MONTICELLO *   MOCLDY    34  34 100 CALM      29.98S
OELWEIN *      PTCLDY    32  32 100 N6        29.99S FOG     WCI  26
WATERLOO       PTCLDY    32  31  96 NW3       29.99S
$$

IAZ064-065-067-068-078-270200-
   EAST CENTRAL IOWA

CITY           SKY/WX    TMP DP  RH WIND       PRES   REMARKS
DAVENPORT      CLOUDY    43  37  79 N7        29.97F
IOWA CITY      CLOUDY    43  36  76 N3        29.99S
MT. PLEASANT * CLOUDY    45  39  81 SE5       29.96S
MUSCATINE *    CLOUDY    45  37  76 CALM      29.98S
QUAD CITIES    CLOUDY    42  37  82 CALM      29.97S
$$

IAZ062-063-075>077-085>089-095>099-270200-
   SOUTHEAST IOWA

CITY           SKY/WX    TMP DP  RH WIND       PRES   REMARKS
BURLINGTON     CLOUDY    49  42  77 SE3       29.96S
FAIRFIELD *    CLOUDY    43  37  81 N7        29.96S
FORT MADISON *   N/A     52  45  76 CALM      29.97S
KEOKUK *       CLOUDY    50  43  76 CALM      29.96R
OSKALOOSA *    CLOUDY    36  34  93 N7        29.97S WCI  30
CENTERVILLE *  CLOUDY    39  36  87 N6        29.97R WCI  35
OTTUMWA        CLOUDY    38  34  85 N9        29.96S WCI  31
WASHINGTON *   CLOUDY    45  41  87 N6        29.97R
$$

ABBREVIATIONS USED IN REMARKS
   TC - TEMPERATURES IN CELSIUS
  WCI - WIND CHILL INDEX
   HX - HEAT INDEX
  VSB - VISIBILITY
$$



USA.gov is the U.S. government's official web portal to all federal, state and local government web resources and services.